Back to catalog

STARLINK-30092

AliveCommunicationsVLEO
NORAD 57467·PAYLOAD·🇺🇸 United States

Launched Jul 28, 2023 from Cape Canaveral Space Force Station

Loading…

Next Passes (next 24 hours)

TLE

FreshSource: CelesTrak SupGP

Epoch: Sep 14, 2026, 13:40 UTC

1 57467C 23107L   26257.56993056  .00020536  00000+0  74377-3 0  2570
2 57467  43.0040 349.5899 0001657 267.8302  25.9718 15.27568992    13

Track STARLINK-30092 in real time with AllMySat

Download on the App Store